Location: Unspecified
(0.0000°N, 0.0000°E)
Time: 15:00:14
(UTC+00:00)

Vanguard 1 - All Passes

Search period start: 03 March 2015 00:00
Search period end: 13 March 2015 00:00
Orbit: 652 x 3834 km, 34.3° (Epoch: 01 March)

Date Brightness Start Highest point End Pass type
(mag) Time Alt. Az. Time Alt. Az. Time Alt. Az.
03 Mar - 00:44:51 10° NNW 01:01:00 24° NNE 01:17:30 10° ENE visible
03 Mar - 03:11:05 10° NW 03:32:46 48° NNE 03:47:52 10° E visible
03 Mar - 05:38:53 10° WNW 05:59:02 74° SW 06:09:56 10° SE visible
03 Mar - 08:12:59 10° W 08:21:22 18° SW 08:26:47 10° S daylight
03 Mar - 15:29:44 10° S 15:33:41 21° SE 15:39:19 10° E daylight
03 Mar - 17:47:27 10° WSW 17:54:15 65° NNW 18:06:57 10° NE daylight
03 Mar - 20:10:33 10° WNW 20:19:35 25° NNW 20:32:50 10° NNE visible
03 Mar - 22:39:33 10° NW 22:50:47 18° N 23:04:24 10° NE visible
04 Mar - 01:06:59 10° NNW 01:24:49 28° NNE 01:42:03 10° ENE visible
04 Mar - 03:32:50 10° NW 03:55:24 59° NNE 04:10:08 10° ESE visible
04 Mar - 06:01:40 10° WNW 06:20:36 57° SW 06:30:59 10° SE daylight
04 Mar - 08:39:46 10° SW 08:43:09 11° SW 08:45:15 10° SSW daylight
04 Mar - 15:50:01 10° SSW 15:54:52 35° SE 16:02:29 10° ENE daylight
04 Mar - 18:09:10 10° W 18:16:10 46° NNW 18:28:37 10° NE daylight
04 Mar - 20:33:54 10° NW 20:42:42 20° N 20:54:42 10° NNE visible
04 Mar - 23:02:52 10° NNW 23:14:52 19° N 23:29:22 10° NE visible
05 Mar - 01:28:47 10° NNW 01:48:20 34° NNE 02:06:01 10° E visible
05 Mar - 03:54:43 10° NW 04:17:43 74° NE 04:32:02 10° ESE visible
05 Mar - 06:24:58 10° WNW 06:42:06 42° SW 06:51:48 10° SSE daylight
05 Mar - 16:10:49 10° SW 16:16:04 60° SE 16:24:58 10° ENE daylight
05 Mar - 18:31:16 10° W 18:38:22 33° NNW 18:50:04 10° NE visible
05 Mar - 20:57:38 10° NW 21:06:05 17° N 21:16:59 10° NNE visible
05 Mar - 23:25:32 10° NNW 23:38:55 21° NNE 23:54:51 10° ENE visible
06 Mar - 01:50:25 10° NW 02:11:32 42° NNE 02:29:21 10° E visible
06 Mar - 04:16:48 10° NW 04:39:48 90° NE 04:53:36 10° SE visible
06 Mar - 06:48:57 10° W 07:03:40 31° SW 07:12:22 10° SSE daylight
06 Mar - 16:31:56 10° SW 16:37:25 85° NW 16:47:00 10° NE daylight
06 Mar - 18:53:50 10° WNW 19:00:50 25° NNW 19:11:25 10° NNE visible
06 Mar - 21:21:28 10° NNW 21:29:43 16° N 21:40:09 10° NNE visible
06 Mar - 23:47:37 10° NNW 00:02:47 24° NNE 00:20:15 10° ENE visible
07 Mar - 02:12:01 10° NW 02:34:25 51° NNE 02:52:09 10° ESE visible
07 Mar - 04:39:11 10° WNW 05:01:39 73° SW 05:14:56 10° SE visible
07 Mar - 07:13:48 10° W 07:25:23 22° SW 07:32:38 10° S daylight
07 Mar - 14:35:26 10° S 14:38:43 19° SE 14:42:56 10° E daylight
07 Mar - 16:53:25 10° WSW 16:59:00 54° NNW 17:08:40 10° NE daylight
07 Mar - 19:16:54 10° NW 19:23:34 19° NNW 19:32:43 10° NNE visible
07 Mar - 21:44:53 10° NNW 21:53:30 15° N 22:04:32 10° NE visible
08 Mar - 00:09:21 10° NNW 00:26:24 29° NNE 00:45:07 10° ENE visible
08 Mar - 02:33:41 10° NW 02:57:01 63° NNE 03:14:28 10° ESE visible
08 Mar - 05:01:59 10° WNW 05:23:23 58° SW 05:36:01 10° SE visible
08 Mar - 07:39:53 10° WSW 07:47:21 15° SW 07:52:15 10° S daylight
08 Mar - 14:55:44 10° SSW 14:59:58 34° SE 15:05:51 10° ENE daylight
08 Mar - 17:15:15 10° W 17:20:53 36° NNW 17:30:03 10° NE daylight
08 Mar - 19:40:33 10° NW 19:46:33 15° N 19:54:07 10° NNE visible
08 Mar - 22:07:35 10° NNW 22:17:20 17° NNE 22:30:06 10° NE visible
09 Mar - 00:30:52 10° NNW 00:49:44 36° NNE 01:09:18 10° E visible
09 Mar - 02:55:28 10° NW 03:19:22 77° NE 03:36:25 10° ESE visible
09 Mar - 05:25:19 10° WNW 05:45:05 44° SW 05:56:55 10° SSE visible
09 Mar - 15:16:33 10° SW 15:21:11 64° SE 15:28:04 10° ENE daylight
09 Mar - 17:37:34 10° WNW 17:43:01 25° NNW 17:51:09 10° NNE daylight
09 Mar - 20:04:38 10° NNW 20:09:45 13° N 20:15:56 10° NNE visible
09 Mar - 22:29:36 10° NNW 22:41:06 19° NNE 22:56:12 10° ENE visible
10 Mar - 00:52:17 10° NW 01:12:45 44° NNE 01:32:48 10° E visible
10 Mar - 03:17:28 10° NW 03:41:30 88° SW 03:58:03 10° SE visible
10 Mar - 05:49:19 10° W 06:06:54 33° SW 06:17:38 10° SSE visible
10 Mar - 15:37:47 10° WSW 15:42:32 73° NW 15:49:49 10° NE daylight
10 Mar - 18:00:27 10° WNW 18:05:24 18° NNW 18:12:01 10° NNE daylight
10 Mar - 20:28:31 10° NNW 20:33:10 12° N 20:38:51 10° NNE visible
10 Mar - 22:51:11 10° NNW 23:04:41 23° NNE 23:22:04 10° ENE visible
11 Mar - 01:13:43 10° NW 01:35:31 54° NNE 01:55:43 10° ESE visible
11 Mar - 03:39:48 10° WNW 04:03:30 72° SW 04:19:25 10° SE visible
11 Mar - 06:14:11 10° W 06:28:53 25° SW 06:38:07 10° SSE daylight
11 Mar - 13:40:45 10° S 13:43:53 19° SE 13:47:25 10° E daylight
11 Mar - 15:59:23 10° WSW 16:04:06 42° NNW 16:11:12 10° NE daylight
11 Mar - 18:24:11 10° NW 18:28:01 13° N 18:32:30 10° NNE visible
11 Mar - 20:51:22 10° NNW 20:56:41 12° N 21:03:40 10° NNE visible
11 Mar - 23:12:31 10° NNW 23:28:00 29° NNE 23:47:17 10° E visible
12 Mar - 01:35:14 10° NW 01:58:02 66° NE 02:18:08 10° ESE visible
12 Mar - 04:02:31 10° WNW 04:25:26 58° SW 04:40:36 10° SE visible
12 Mar - 06:40:04 10° WSW 06:51:06 18° SSW 06:58:16 10° S daylight
12 Mar - 14:01:10 10° SSW 14:05:13 36° SE 14:10:02 10° ENE daylight
12 Mar - 16:21:29 10° W 16:25:56 26° NNW 16:32:14 10° NNE daylight
12 Mar - 18:50:37 10° N 18:50:51 10° N 18:50:55 10° N visible
12 Mar - 21:13:09 10° NNW 21:20:14 14° NNE 21:30:00 10° NE visible
